Content
SEND FEEDBACK

Daily
Averages
Monthly
Summary
Brazil

BELEM, ALAGOAS


Home > South America > Brazil > Alagoas
Elevation: 16 meters     Latitude: 01 23S     Longitude: 048 29W

WEATHER
 
SELECT A DAY
Number of Records: 187,710;   Date Range: 6/30/96 - 10/1/14
 
SHARE

PRINT THIS DATA

[ ← Previous Day ]
WEATHER ALMANAC - 3 JANUARY, 2013
[ Next Day → ]
[ °F ]   °C
Weather ElementAverageHighLow
Temperature25.2 °C30 °C (1:00 pm)22.8 °C (3:00 am)
Dewpoint21.6 °C23 °C (2:00 pm)21 °C (1:00 am)
Humidity79.9 %88 % (1:00 am)62 % (1:00 pm)
Barometer939.4 hPa1013.5 hPa (9:00 pm) (7:00 pm)
Wind Speed12.6 km/h42.6 km/h (2:15 pm)
Weather ElementAverage
Visibility10.5 km
Wind DirectionENE (73.2 °)

Weather ElementTotal
Precipitation---
Cooling Degree Days8.1 (Base 18.3)
Growing Degree Days16.4 (Base 10)
Averaged from 28 records on 3 January, 2013
WEATHER CONDITIONS BREAKOUT
WIND DIRECTION BREAKOUT
WEATHER BY HOUR - 3 JANUARY, 2013
[ °F ]   °C
Local TimeTemperatureDewpointHumidityBarometerVisibilityWind DirectionWind SpeedGust SpeedPrecipitationEventsConditions
1:00 AM23 °C21 °C88 %1011.2 hPaEast (100°)5.6 km/hClear
2:00 AM23 °C21 °C88 %1011.2 hPaEast (90°)5.6 km/hClear
3:00 AM22.8 °C21.1 °C87 %1010.8 hPa19.3 kmENE (60°)5.6 km/hScattered Clouds
3:00 AM23 °C21 °C88 %1010.2 hPa10 kmENE (60°)5.6 km/hMostly Cloudy
4:00 AM23 °C21 °C88 %1010.2 hPa10 kmENE (70°)3.7 km/hMostly Cloudy
5:00 AM23 °C21 °C88 %1011.2 hPa10 kmCalmMostly Cloudy
6:00 AM23 °C21 °C88 %1011.2 hPa10 kmENE (60°)5.6 km/hPartly Cloudy
7:00 AM23 °C21 °C88 %1012.2 hPa10 kmEast (80°)3.7 km/hScattered Clouds
8:00 AM25 °C22 °C83 %1013.2 hPa10 kmENE (60°)7.4 km/hScattered Clouds
9:00 AM26.7 °C22.2 °C71 %1013.2 hPa19.3 kmENE (60°)16.7 km/hPartly Cloudy
9:00 AM27 °C22 °C74 %1013.2 hPa10 kmENE (60°)16.7 km/hScattered Clouds
10:00 AM29 °C22 °C66 %1013.2 hPa10 kmNE (50°)16.7 km/hMostly Cloudy
11:00 AM29 °C22 °C66 %1013.2 hPa10 kmNE (40°)13 km/hMostly Cloudy
12:00 PM27 °C22 °C74 %1012.2 hPa10 kmESE (110°)14.8 km/hScattered Clouds
1:00 PM30 °C22 °C62 %1011.2 hPa10 kmNE (50°)16.7 km/hMostly Cloudy
2:00 PM27 °C23 °C79 %10 kmNNW (340°)22.2 km/hPartly Cloudy
2:15 PM26 °C22 °C78 %1.9 kmNE (50°)42.6 km/hRainRain
3:00 PM25 °C21.7 °C78 %1010.8 hPa3.2 kmNNE (30°)22.2 km/hRainLight Rain
3:00 PM25 °C22 °C83 %1010.2 hPa10 kmNNE (30°)22.2 km/hRainLight Rain
4:00 PM26 °C21 °C74 %1010.2 hPa10 kmNE (50°)18.5 km/hMostly Cloudy
5:00 PM26 °C21 °C74 %1010.2 hPa10 kmENE (70°)16.7 km/hMostly Cloudy
6:00 PM26 °C21 °C74 %1010.2 hPa10 kmNE (50°)14.8 km/hMostly Cloudy
7:00 PM25 °C22 °C83 %1011.2 hPa10 kmNE (50°)9.3 km/hMostly Cloudy
8:00 PM25 °C22 °C83 %1012.2 hPa10 kmENE (60°)7.4 km/hScattered Clouds
9:00 PM25 °C22.2 °C79 %1013.5 hPa19.3 kmEast (90°)13 km/hPartly Cloudy
9:00 PM25 °C22 °C83 %1013.2 hPa10 kmEast (90°)13 km/hRainLight Rain
10:00 PM23 °C21 °C88 %1013.2 hPa10 kmEast (100°)5.6 km/hMostly Cloudy
11:00 PM24 °C21 °C83 %1013.2 hPa10 kmEast (90°)5.6 km/hMostly Cloudy
Hourly data recorded from SBBE, located 0 kilometers away from Belem, Alagoas







STORIES FROM OUR PARTNERS